[[{"header":{"parameterUnit":"m.s-1","parameterCategory":1,"la1":30.2991,"la2":30.254,"lo1":-89.0895,"lo2":-89.0444,"dy":0.0017,"dx":0.0017,"nx":28,"ny":28,"refTime":"2023-08-19T09:00:00:Z","depth":0,"parameterNumber":2,"parameterNumberName":"U-component_of_WINDS"},"data":[0,0,0,0,0,0,0,0,0,0,0,0,0,0,0,0,0,0,0,0,0,0,0,0,0,0,0,0,0,0,0,0,0,0,0,0,0,0,0,0,0,0,0,0,0,0,0,0,0,0,0,0,0,0,0,0,0,0,1.8256,1.8257,0,1.8352,1.8353,1.8354,1.8366,1.8365,1.8364,1.8363,1.8467,1.847,1.8474,0,0,0,0,0,0,0,0,0,0,0,0,0,1.8088,1.8091,1.8256,1.8257,1.8258,1.8352,1.8353,1.8354,1.8366,1.8365,1.8364,1.8363,1.8465,1.847,1.8474,0,0,0,0,0,0,0,0,0,0,0,0,0,1.817,1.8092,1.8255,1.8275,1.8278,1.8351,1.8353,1.8355,1.8366,1.8365,1.8363,1.8362,1.8464,1.8469,1.8475,1.8537,0,0,1.8491,1.8494,0,0,0,0,0,0,0,0,1.8165,1.8176,1.8271,1.8274,1.8277,1.8345,1.8332,1.8416,1.8367,1.8333,1.8363,1.8361,1.8428,1.8436,1.8457,1.8542,1.8546,1.8492,1.8495,1.8498,1.8499,0,0,0,0,0,0,0,1.8159,1.8172,1.8294,1.8272,1.8276,1.8281,1.8291,1.8348,1.8387,1.8336,1.8337,1.8348,1.8429,1.8452,1.846,1.8548,1.8492,1.8497,1.85,1.8502,1.8688,1.869,0,0,0,0,0,0,1.8149,1.8167,1.8291,1.8297,1.8216,1.8285,1.8296,1.8325,1.8387,1.8395,1.8349,1.8348,1.8444,1.8454,1.8464,1.854,1.8498,1.8503,1.8506,1.8687,1.8689,1.8691,0,0,0,0,0,0,1.8146,1.816,1.8287,1.8232,1.8249,1.8289,1.8321,1.8328,1.835,1.8396,1.8404,1.8364,1.8443,1.8456,1.8518,1.8543,1.8505,1.851,1.8685,1.8687,1.869,1.8693,0,0,0,0,0,0,1.8141,1.8159,1.8181,1.8233,1.8251,1.8338,1.8323,1.833,1.8359,1.8359,1.8413,1.8421,1.8443,1.851,1.8524,1.855,1.8514,1.8683,1.8686,1.8689,1.869,1.8695,1.8699,0,0,0,0,0,1.8135,1.818,1.8182,1.8197,1.828,1.8339,1.835,1.8373,1.8361,1.8385,1.8415,1.8419,1.8539,1.8516,1.8532,1.856,1.8681,1.8685,1.8689,1.8689,1.8694,1.8699,0,0,0,0,0,0,1.8131,1.8186,1.819,1.8253,1.8291,1.8341,1.8371,1.8378,1.8422,1.842,1.8448,1.846,1.8521,1.8548,1.8521,1.8624,1.8609,1.8616,1.8604,1.861,1.8614,1.8605,1.8519,0,0,0,0,0,1.8138,1.818,1.8226,1.8277,1.8296,1.833,1.8357,1.8371,1.8413,1.8429,1.8464,1.8506,1.8553,1.8583,1.8629,1.8695,1.8707,1.8723,1.8727,1.873,1.8735,1.8772,1.878,1.8703,1.8703,1.8703,0,0,1.8152,1.8187,1.8212,1.8277,1.8308,1.8352,1.8344,1.8391,1.8424,1.8437,1.8497,1.8524,1.8573,1.8637,1.8667,1.8661,1.876,1.8735,1.8737,1.8741,1.8777,1.8784,1.8791,1.8705,1.8705,1.8705,0,0,1.8198,1.8229,1.8274,1.8306,1.8354,1.8377,1.8388,1.8437,1.8455,1.8516,1.8526,1.8568,1.8648,1.8682,1.871,1.8771,1.8777,1.8786,1.8807,1.8843,1.8849,1.8854,1.8875,1.8883,1.8792,1.8792,1.8792,0,1.8209,1.8274,1.8297,1.8344,1.8372,1.8385,1.8432,1.8463,1.8523,1.8543,1.8536,1.8637,1.8671,1.8743,1.8757,1.878,1.8794,1.8779,1.8846,1.8852,1.8857,1.8877,1.8885,1.8792,1.8792,1.8792,1.8792,0,1.8286,1.8331,1.8362,1.8418,1.8451,1.8498,1.8529,1.856,1.8572,1.8596,1.8659,1.87,1.8754,1.8773,1.8786,1.8847,1.8842,1.884,1.8825,1.8865,1.8884,1.8892,1.8793,1.8793,1.8793,1.8793,0,0,1.833,1.84,1.8411,1.8436,1.8491,1.8527,1.8575,1.8626,1.8652,1.8695,1.8735,1.8804,1.8802,1.8834,1.8851,1.8883,1.8928,1.8877,1.8879,1.8884,1.8998,1.8998,1.9006,1.8933,1.8935,1.8936,1.8993,0,1.8382,1.8465,1.8488,1.8559,1.8602,1.8616,1.8658,1.8697,1.8722,1.8763,1.8791,1.8838,1.8833,1.8852,1.8884,1.8916,1.8951,1.8912,1.8972,1.8974,1.8957,1.9017,1.9016,1.9068,1.9001,1.9003,1.9004,0,1.8453,1.8495,1.8569,1.8618,1.8637,1.8674,1.8724,1.8763,1.8808,1.8824,1.8859,1.8874,1.8926,1.891,1.8983,1.8956,1.8982,1.9002,1.9004,1.9009,1.8989,1.9022,1.9085,1.9092,1.9016,1.9015,1.9014,0,1.8476,1.8552,1.8606,1.8628,1.8687,1.8713,1.8739,1.8783,1.8812,1.8857,1.8877,1.8927,1.8955,1.8994,1.9023,1.9008,1.9093,1.9079,1.9108,1.9107,1.9123,1.9121,1.919,1.9143,1.9143,1.9143,1.9143,0,1.853,1.8575,1.8617,1.8651,1.8702,1.873,1.878,1.8807,1.8846,1.8886,1.8903,1.8941,1.8977,1.902,1.9043,1.9099,1.9112,1.9127,1.9132,1.9124,1.9122,1.9141,1.9137,1.9145,1.9144,1.9144,1.9144,0,1.8563,1.8594,1.8654,1.8705,1.8719,1.8755,1.8799,1.8833,1.8859,1.891,1.8923,1.8965,1.9016,1.9049,1.9115,1.9131,1.9192,1.9197,1.9176,1.9178,1.9204,1.92,1.9285,1.9298,1.9244,1.9244,1.9245,0,1.8595,1.8629,1.8684,1.8712,1.8737,1.8782,1.8812,1.8842,1.8873,1.8927,1.8955,1.9007,1.905,1.9132,1.9168,1.9219,1.9225,1.9251,1.9233,1.9223,1.9224,1.922,1.9224,1.9254,1.9254,1.9254,1.9255,0,1.8647,1.866,1.8702,1.875,1.8786,1.8825,1.8865,1.8887,1.8924,1.8958,1.901,1.9044,1.9111,1.9162,1.9217,1.9246,1.9256,1.9261,1.927,1.9261,1.9246,1.9253,1.9182,1.9258,1.9258,1.9257,1.9257,1.9257,1.8679,1.871,1.8754,1.8801,1.8834,1.8871,1.8905,1.8935,1.8979,1.9034,1.905,1.9104,1.915,1.9224,1.9254,1.9298,1.9294,1.9308,1.9311,1.9313,1.9313,1.9241,1.9308,1.9308,1.9308,1.9308,1.9308,0,1.8731,1.876,1.8803,1.8857,1.8894,1.8901,1.8946,1.8977,1.9024,1.9065,1.9107,1.9167,1.9218,1.9259,1.9312,1.9339,1.9345,1.9351,1.9349,1.9355,1.9313,1.9299,1.9345,1.9345,1.9345,1.9345,1.9345,1.9345,1.8761,1.8815,1.8834,1.8905,1.8934,1.8986,1.9011,1.9046,1.9079,1.9144,1.9186,1.9212,1.9254,1.931,1.9357,1.9368,1.9386,1.9391,1.9403,1.9363,1.9358,1.9354,1.9341,1.9395,1.9395,1.9441,1.9442,1.9442]},{"header":{"parameterUnit":"m.s-1","parameterCategory":1,"la1":30.2991,"la2":30.254,"lo1":-89.0895,"lo2":-89.0444,"dy":0.0017,"dx":0.0017,"nx":28,"ny":28,"refTime":"2023-08-19T09:00:00:Z","depth":0,"parameterNumber":3,"parameterNumberName":"V-component_of_WINDS"},"data":[0,0,0,0,0,0,0,0,0,0,0,0,0,0,0,0,0,0,0,0,0,0,0,0,0,0,0,0,0,0,0,0,0,0,0,0,0,0,0,0,0,0,0,0,0,0,0,0,0,0,0,0,0,0,0,0,0,0,4.7368,4.7369,0,4.7463,4.7464,4.7465,4.748,4.7479,4.7478,4.7478,4.7565,4.7568,4.7571,0,0,0,0,0,0,0,0,0,0,0,0,0,4.7188,4.7192,4.7368,4.7369,4.737,4.7462,4.7464,4.7465,4.748,4.7479,4.7478,4.7477,4.7564,4.7567,4.7571,0,0,0,0,0,0,0,0,0,0,0,0,0,4.7273,4.7193,4.7368,4.7389,4.7392,4.7462,4.7464,4.7465,4.748,4.7479,4.7478,4.7477,4.7563,4.7567,4.7572,4.7624,0,0,4.7586,4.7588,0,0,0,0,0,0,0,0,4.7268,4.7279,4.7385,4.7388,4.7391,4.7459,4.7432,4.7518,4.7481,4.7447,4.7478,4.7476,4.753,4.7537,4.7557,4.7628,4.7632,4.7586,4.7589,4.7591,4.7592,0,0,0,0,0,0,0,4.7262,4.7275,4.7405,4.7386,4.739,4.739,4.7401,4.7449,4.7493,4.7449,4.7451,4.7462,4.7531,4.7553,4.7559,4.7633,4.7586,4.759,4.7593,4.7595,4.7747,4.7748,0,0,0,0,0,0,4.7254,4.727,4.7402,4.7408,4.7326,4.7394,4.7406,4.7438,4.7493,4.75,4.7463,4.7463,4.7545,4.7554,4.7562,4.7625,4.7591,4.7595,4.7598,4.7745,4.7747,4.7748,0,0,0,0,0,0,4.725,4.7266,4.7398,4.734,4.7357,4.7399,4.7434,4.744,4.7462,4.7504,4.751,4.7478,4.7545,4.7556,4.7608,4.7628,4.7597,4.7601,4.7744,4.7746,4.7748,4.7751,0,0,0,0,0,0,4.7245,4.7264,4.7288,4.734,4.736,4.7446,4.7435,4.7443,4.7471,4.7471,4.7519,4.7526,4.7545,4.7601,4.7613,4.7634,4.7605,4.7742,4.7745,4.7747,4.7749,4.7753,4.7756,0,0,0,0,0,4.7238,4.7283,4.7289,4.7304,4.739,4.7447,4.7458,4.7482,4.7473,4.7494,4.752,4.7524,4.7624,4.7606,4.762,4.7642,4.7741,4.7744,4.7747,4.7748,4.7752,4.7756,0,0,0,0,0,0,4.7229,4.7291,4.7297,4.7362,4.7399,4.745,4.7478,4.7486,4.7525,4.7523,4.7548,4.7558,4.7609,4.7631,4.761,4.7693,4.7681,4.7687,4.7677,4.7682,4.7685,4.7678,4.7609,0,0,0,0,0,4.7235,4.728,4.733,4.7381,4.74,4.7436,4.7462,4.7477,4.7516,4.7531,4.7561,4.7595,4.7634,4.7659,4.7698,4.7752,4.7761,4.7774,4.7777,4.7779,4.7783,4.781,4.7816,4.7758,4.7758,4.7758,0,0,4.7247,4.7286,4.7313,4.7381,4.7412,4.7453,4.7449,4.7494,4.7524,4.7537,4.7588,4.7611,4.7651,4.7704,4.7728,4.7723,4.7801,4.7783,4.7785,4.7788,4.7814,4.7819,4.7824,4.776,4.7759,4.7759,0,0,4.729,4.7326,4.7371,4.7402,4.745,4.7473,4.7484,4.7533,4.7549,4.7602,4.7611,4.7645,4.7712,4.774,4.7762,4.7812,4.7815,4.7823,4.7839,4.7865,4.787,4.7874,4.7888,4.7894,4.7827,4.7827,4.7827,0,4.7298,4.7365,4.7392,4.7437,4.7464,4.748,4.7523,4.7551,4.7607,4.7624,4.7619,4.7702,4.773,4.7788,4.78,4.7818,4.7828,4.7817,4.7867,4.7872,4.7876,4.789,4.7896,4.7828,4.7828,4.7827,4.7827,0,4.737,4.7416,4.7446,4.7503,4.7534,4.7577,4.7607,4.7634,4.7646,4.7668,4.7718,4.7753,4.7797,4.7812,4.7823,4.787,4.7865,4.7863,4.7851,4.7881,4.7895,4.7901,4.7828,4.7828,4.7828,4.7828,0,0,4.7411,4.7481,4.7491,4.7516,4.7568,4.7602,4.7644,4.769,4.7711,4.7748,4.7781,4.7837,4.7835,4.7861,4.7874,4.7897,4.793,4.7892,4.7893,4.7896,4.798,4.798,4.7986,4.7933,4.7934,4.7935,4.7976,0,4.7458,4.7537,4.7562,4.7626,4.7666,4.768,4.7716,4.7749,4.777,4.7804,4.7826,4.7864,4.786,4.7875,4.7899,4.7921,4.7947,4.7919,4.7961,4.7962,4.7949,4.7994,4.7995,4.8032,4.7982,4.7983,4.7984,0,4.7524,4.7564,4.7634,4.7678,4.7696,4.7729,4.777,4.7804,4.784,4.7854,4.7881,4.7893,4.7932,4.7919,4.7972,4.7952,4.797,4.7984,4.7985,4.7989,4.7974,4.7996,4.8044,4.8049,4.7993,4.7992,4.7991,0,4.7543,4.7615,4.7665,4.7685,4.774,4.7761,4.7784,4.782,4.7845,4.788,4.7895,4.7934,4.7954,4.7982,4.8001,4.7991,4.8051,4.8041,4.806,4.806,4.8072,4.8071,4.8121,4.8086,4.8086,4.8086,4.8086,0,4.7592,4.7633,4.7674,4.7705,4.7749,4.7775,4.7817,4.784,4.7871,4.7903,4.7916,4.7945,4.7971,4.8002,4.8017,4.8057,4.8066,4.8075,4.8078,4.8073,4.8072,4.8084,4.8082,4.8088,4.8087,4.8087,4.8087,0,4.7621,4.7651,4.7706,4.7752,4.7765,4.7795,4.7833,4.7861,4.7882,4.7922,4.7932,4.7964,4.8001,4.8024,4.807,4.808,4.8123,4.8126,4.8112,4.8113,4.8131,4.8128,4.819,4.8198,4.8159,4.816,4.816,0,4.765,4.7682,4.7732,4.7756,4.7779,4.7817,4.7843,4.7868,4.7893,4.7935,4.7957,4.7995,4.8028,4.8085,4.811,4.8145,4.8148,4.8167,4.8153,4.8146,4.8145,4.8142,4.8144,4.8169,4.8169,4.8169,4.817,0,4.7697,4.7709,4.7747,4.7789,4.782,4.7854,4.7887,4.7904,4.7934,4.7961,4.8,4.8025,4.8073,4.8109,4.8146,4.8165,4.8171,4.8174,4.818,4.8174,4.8164,4.8167,4.8116,4.8172,4.8172,4.8172,4.8172,4.8171,4.7725,4.7753,4.7792,4.7832,4.786,4.7891,4.7919,4.7943,4.7977,4.802,4.8031,4.8071,4.8103,4.8153,4.8173,4.8202,4.8199,4.8208,4.821,4.8212,4.8211,4.816,4.8209,4.8209,4.8209,4.8209,4.8209,0,4.777,4.7796,4.7833,4.788,4.791,4.7916,4.7952,4.7977,4.8013,4.8044,4.8075,4.8118,4.8153,4.818,4.8215,4.8233,4.8236,4.8241,4.8239,4.8243,4.8213,4.8204,4.8238,4.8238,4.8238,4.8238,4.8238,4.8238,4.7797,4.7844,4.786,4.7919,4.7944,4.7985,4.8005,4.8031,4.8056,4.8104,4.8134,4.8153,4.8181,4.8217,4.8248,4.8255,4.8266,4.827,4.8277,4.8248,4.8245,4.8242,4.8233,4.8273,4.8273,4.8304,4.8304,4.8305]}]]